timestamp,surface_pressure_avg,surface_temp_avg,battery_voltage,lat,long
2018-05-11 00:00:00+00:00,221.5064,4.9,13.13,47.84626,-54.09684
2018-05-11 00:10:00+00:00,215.4581,4.9,13.05,47.84626,-54.09684
2018-05-11 00:20:00+00:00,209.4548,4.9,13.13,47.84626,-54.09684
2018-05-11 00:30:00+00:00,205.5698,4.9,13.13,47.84626,-54.09684
2018-05-11 00:40:00+00:00,202.6231,4.9,13.13,47.84626,-54.09684
2018-05-11 00:50:00+00:00,200.4231,4.9,13.13,47.84626,-54.09684
2018-05-11 01:00:00+00:00,201.6415,4.9,13.05,47.84626,-54.09684
2018-05-11 01:10:00+00:00,204.2848,4.9,13.05,47.84626,-54.09684
2018-05-11 01:20:00+00:00,203.9131,4.9,13.05,47.84626,-54.09684
2018-05-11 01:30:00+00:00,202.6215,4.9,13.05,47.84626,-54.09684
2018-05-11 01:40:00+00:00,204.5848,4.9,13.05,47.84626,-54.09684
2018-05-11 01:50:00+00:00,206.0215,4.9,13.13,47.84626,-54.09684
2018-05-11 02:00:00+00:00,207.8098,4.9,13.05,47.84626,-54.09684
2018-05-11 02:10:00+00:00,210.8114,4.9,12.97,47.84626,-54.09684
2018-05-11 02:20:00+00:00,210.9331,4.9,13.05,47.84626,-54.09684
2018-05-11 02:30:00+00:00,210.2014,4.9,13.05,47.84626,-54.09684
2018-05-11 02:40:00+00:00,214.1231,4.9,13.05,47.84626,-54.09684
2018-05-11 02:50:00+00:00,216.2515,4.9,13.05,47.84626,-54.09684
2018-05-11 03:00:00+00:00,210.6414,4.93,13.05,47.84626,-54.09684
2018-05-11 03:10:00+00:00,206.9298,4.94,12.97,47.84626,-54.09684
2018-05-11 03:20:00+00:00,211.5948,4.92,13.05,47.84626,-54.09684
2018-05-11 03:30:00+00:00,213.7248,4.92,13.05,47.84626,-54.09684
2018-05-11 03:40:00+00:00,213.3014,4.97,13.05,47.84626,-54.09684
2018-05-11 03:50:00+00:00,215.4781,4.98,13.05,47.84626,-54.09684
2018-05-11 04:00:00+00:00,219.8814,4.98,12.97,47.84626,-54.09684
2018-05-11 04:10:00+00:00,222.5197,4.98,12.97,47.84626,-54.09684
2018-05-11 04:20:00+00:00,221.9398,4.99,12.97,47.84626,-54.09684
2018-05-11 04:30:00+00:00,226.6148,5.0,12.97,47.84626,-54.09684
2018-05-11 04:40:00+00:00,233.6797,5.0,13.05,47.84626,-54.09684
2018-05-11 04:50:00+00:00,235.8514,5.0,13.05,47.84626,-54.09684
2018-05-11 05:00:00+00:00,237.8315,5.0,12.97,47.84626,-54.09684
2018-05-11 05:10:00+00:00,245.0531,5.0,12.89,47.84626,-54.09684
2018-05-11 05:20:00+00:00,253.1881,5.0,12.97,47.84626,-54.09684
2018-05-11 05:30:00+00:00,253.1931,5.0,12.97,47.84626,-54.09684
2018-05-11 05:40:00+00:00,257.1248,5.0,12.97,47.84626,-54.09684
2018-05-11 05:50:00+00:00,263.9998,5.0,13.05,47.84626,-54.09684
2018-05-11 06:00:00+00:00,273.658,5.0,12.97,47.84626,-54.09684
2018-05-11 06:10:00+00:00,274.0847,5.0,12.89,47.84626,-54.09684
2018-05-11 06:20:00+00:00,277.053,5.0,12.97,47.84626,-54.09684
2018-05-11 06:30:00+00:00,282.0731,5.0,12.97,47.84626,-54.09684
2018-05-11 06:40:00+00:00,289.9097,5.0,12.97,47.84626,-54.09684
2018-05-11 06:50:00+00:00,290.6114,5.02,12.97,47.84626,-54.09684
2018-05-11 07:00:00+00:00,296.0247,5.05,12.97,47.84626,-54.09684
2018-05-11 07:10:00+00:00,300.163,5.05,12.89,47.84626,-54.09684
2018-05-11 07:20:00+00:00,300.348,5.08,12.97,47.84626,-54.09684
2018-05-11 07:30:00+00:00,301.203,5.1,12.97,47.84626,-54.09684
2018-05-11 07:40:00+00:00,309.473,5.1,12.97,47.84626,-54.09684
2018-05-11 07:50:00+00:00,314.0996,5.09,12.97,47.84626,-54.09684
2018-05-11 08:00:00+00:00,311.3347,5.1,12.97,47.84626,-54.09684
2018-05-11 08:10:00+00:00,312.3914,5.1,12.89,47.84626,-54.09684
2018-05-11 08:20:00+00:00,313.7681,5.1,12.97,47.84626,-54.09684
2018-05-11 08:30:00+00:00,314.0714,5.1,12.97,47.84626,-54.09684
2018-05-11 08:40:00+00:00,312.033,5.1,12.97,47.84626,-54.09684
2018-05-11 08:50:00+00:00,310.4464,5.1,12.97,47.84626,-54.09684
2018-05-11 09:00:00+00:00,309.683,5.1,12.97,47.84626,-54.09684
2018-05-11 09:10:00+00:00,307.4247,5.08,12.89,47.84626,-54.09684
2018-05-11 09:20:00+00:00,305.8248,5.08,12.97,47.84626,-54.09684
2018-05-11 09:30:00+00:00,305.0914,5.06,12.97,47.84626,-54.09684
2018-05-11 09:40:00+00:00,304.4597,5.06,12.97,47.84626,-54.09684
2018-05-11 09:50:00+00:00,299.783,5.08,12.97,47.84626,-54.09684
2018-05-11 10:00:00+00:00,296.538,5.09,12.97,47.84626,-54.09684
2018-05-11 10:10:00+00:00,297.9447,5.09,12.89,47.84626,-54.09684
2018-05-11 10:20:00+00:00,291.4197,5.09,12.97,47.84626,-54.09684
2018-05-11 10:30:00+00:00,283.413,5.1,12.97,47.84626,-54.09684
2018-05-11 10:40:00+00:00,279.5748,5.1,13.05,47.84626,-54.09684
2018-05-11 10:50:00+00:00,281.8564,5.09,13.21,47.84626,-54.09684
2018-05-11 11:00:00+00:00,276.4247,5.1,13.21,47.84626,-54.09684
2018-05-11 11:10:00+00:00,270.628,5.1,13.21,47.84626,-54.09684
2018-05-11 11:20:00+00:00,266.0297,5.1,13.29,47.84626,-54.09684
2018-05-11 11:30:00+00:00,263.6831,5.1,13.37,47.84626,-54.09684
2018-05-11 11:40:00+00:00,255.5697,5.1,13.53,47.84626,-54.09684
2018-05-11 11:50:00+00:00,252.0714,5.1,13.6,47.84626,-54.09684
2018-05-11 12:00:00+00:00,248.6364,5.1,13.68,47.84626,-54.09684
2018-05-11 12:10:00+00:00,244.4764,5.1,13.68,47.84626,-54.09684
2018-05-11 12:20:00+00:00,236.7814,5.12,13.84,47.84626,-54.09684
2018-05-11 12:30:00+00:00,237.6314,5.19,13.84,47.84626,-54.09684
2018-05-11 12:40:00+00:00,239.9714,5.19,13.92,47.84626,-54.09684
2018-05-11 12:50:00+00:00,234.2331,5.2,14.0,47.84626,-54.09684
2018-05-11 13:00:00+00:00,226.0598,5.3,13.92,47.84626,-54.09684
2018-05-11 13:10:00+00:00,225.8781,5.29,13.84,47.84626,-54.09684
2018-05-11 13:20:00+00:00,220.8198,5.3,14.08,47.84626,-54.09684
2018-05-11 13:30:00+00:00,212.2031,5.3,14.16,47.84626,-54.09684
2018-05-11 13:40:00+00:00,210.7714,5.3,14.16,47.84626,-54.09684
2018-05-11 13:50:00+00:00,213.8965,5.3,14.24,47.84626,-54.09684
2018-05-11 14:00:00+00:00,215.4598,5.3,14.08,47.84626,-54.09684
2018-05-11 14:10:00+00:00,215.0448,5.35,14.0,47.84626,-54.09684
2018-05-11 14:20:00+00:00,214.1631,5.4,14.08,47.84626,-54.09684
2018-05-11 14:30:00+00:00,211.6348,5.43,14.08,47.84626,-54.09684
2018-05-11 14:40:00+00:00,212.2131,5.47,14.08,47.84626,-54.09684
2018-05-11 14:50:00+00:00,214.2848,5.49,14.08,47.84626,-54.09684
2018-05-11 15:00:00+00:00,212.7931,5.5,14.0,47.84626,-54.09684
2018-05-11 15:10:00+00:00,211.6397,5.59,13.92,47.84626,-54.09684
2018-05-11 15:20:00+00:00,212.6547,5.59,14.0,47.84626,-54.09684
2018-05-11 15:30:00+00:00,214.5331,5.58,14.08,47.84626,-54.09684
2018-05-11 15:40:00+00:00,216.6864,5.6,14.24,47.84626,-54.09684
2018-05-11 15:50:00+00:00,215.6914,5.6,14.56,47.84626,-54.09684
2018-05-11 16:00:00+00:00,216.7881,5.6,14.24,47.84626,-54.09684
2018-05-11 16:10:00+00:00,221.2598,5.6,14.08,47.84626,-54.09684
2018-05-11 16:20:00+00:00,226.2631,5.6,14.16,47.84626,-54.09684
2018-05-11 16:30:00+00:00,228.6648,5.6,14.24,47.84626,-54.09684
2018-05-11 16:40:00+00:00,229.3781,5.6,14.32,47.84626,-54.09684
2018-05-11 16:50:00+00:00,233.5698,5.6,14.32,47.84626,-54.09684
2018-05-11 17:00:00+00:00,236.6714,5.62,14.16,47.84626,-54.09684
2018-05-11 17:10:00+00:00,239.7131,5.64,14.0,47.84626,-54.09684
2018-05-11 17:20:00+00:00,245.7214,5.64,14.08,47.84626,-54.09684
2018-05-11 17:30:00+00:00,251.3114,5.63,14.0,47.84626,-54.09684
2018-05-11 17:40:00+00:00,255.8397,5.6,14.08,47.84626,-54.09684
2018-05-11 17:50:00+00:00,262.3748,5.6,14.08,47.84626,-54.09684
2018-05-11 18:00:00+00:00,272.3881,5.6,14.0,47.84626,-54.09684
2018-05-11 18:10:00+00:00,281.4431,5.6,13.84,47.84626,-54.09684
2018-05-11 18:20:00+00:00,290.363,5.59,13.84,47.84626,-54.09684
2018-05-11 18:30:00+00:00,299.0446,5.6,13.84,47.84626,-54.09684
2018-05-11 18:40:00+00:00,303.603,5.59,13.84,47.84626,-54.09684
2018-05-11 18:50:00+00:00,303.3214,5.59,13.84,47.84626,-54.09684
2018-05-11 19:00:00+00:00,308.0864,5.58,13.68,47.84626,-54.09684
2018-05-11 19:10:00+00:00,313.6346,5.58,13.6,47.84626,-54.09684
2018-05-11 19:20:00+00:00,310.493,5.58,13.68,47.84626,-54.09684
2018-05-11 19:30:00+00:00,311.2347,5.55,13.68,47.84626,-54.09684
2018-05-11 19:40:00+00:00,321.6213,5.52,13.76,47.84626,-54.09684
2018-05-11 19:50:00+00:00,324.7697,5.54,13.84,47.84626,-54.09684
2018-05-11 20:00:00+00:00,317.3846,5.51,13.84,47.84626,-54.09684
2018-05-11 20:10:00+00:00,322.5096,5.5,13.68,47.84626,-54.09684
2018-05-11 20:20:00+00:00,334.6063,5.51,13.84,47.84626,-54.09684
2018-05-11 20:30:00+00:00,331.4197,5.53,13.76,47.84626,-54.09684
2018-05-11 20:40:00+00:00,324.6997,5.56,13.76,47.84626,-54.09684
2018-05-11 20:50:00+00:00,330.3596,5.57,13.76,47.84626,-54.09684
2018-05-11 21:00:00+00:00,336.9063,5.58,13.68,47.84626,-54.09684
2018-05-11 21:10:00+00:00,329.103,5.58,13.68,47.84626,-54.09684
2018-05-11 21:20:00+00:00,325.923,5.58,13.68,47.84626,-54.09684
2018-05-11 21:30:00+00:00,333.2663,5.58,13.68,47.84626,-54.09684
2018-05-11 21:40:00+00:00,332.5964,5.59,13.68,47.84626,-54.09684
2018-05-11 21:50:00+00:00,326.9963,5.58,13.6,47.84626,-54.09684
2018-05-11 22:00:00+00:00,326.158,5.59,13.53,47.84626,-54.09684
2018-05-11 22:10:00+00:00,328.338,5.59,13.37,47.84626,-54.09684
2018-05-11 22:20:00+00:00,326.5047,5.6,13.37,47.84626,-54.09684
2018-05-11 22:30:00+00:00,320.438,5.6,13.37,47.84626,-54.09684
2018-05-11 22:40:00+00:00,320.508,5.6,13.37,47.84626,-54.09684
2018-05-11 22:50:00+00:00,321.9763,5.6,13.29,47.84626,-54.09684
2018-05-11 23:00:00+00:00,313.0129,5.6,13.29,47.84626,-54.09684
2018-05-11 23:10:00+00:00,300.4147,5.58,13.13,47.84626,-54.09684
2018-05-11 23:20:00+00:00,295.3547,5.55,13.21,47.84626,-54.09684
2018-05-11 23:30:00+00:00,293.2614,5.53,13.13,47.84626,-54.09684
2018-05-11 23:40:00+00:00,282.7614,5.5,13.21,47.84626,-54.09684
2018-05-11 23:50:00+00:00,275.9664,5.5,13.21,47.84626,-54.09684
